Regional Weather Roundup
Issued by NWS State College, PA

Home | Current Version | Previous Version | Text Only | Print | Product List | Glossary On
Versions: 1 2 3 4 5 6 7 8 9 10 11 12 13 14 15 16 17 18 19 20 21 22 23 24 25 26 27 28 29 30 31 32 33 34 35 36 37 38 39 40 41 42 43 44 45 46 47 48 49 50
000
ASUS41 KCTP 311810
RWRCTP

REGIONAL WEATHER ROUNDUP
NATIONAL WEATHER SERVICE STATE COLLEGE PA
200 PM EDT FRI JUL 31 2015

Note: "fair" indicates few or no clouds below 12,000 feet with no
significant weather and/or obstructions to visibility.

* = STATION THAT DOES NOT REPORT PRECIPITATION /E.G. RAIN...SNOW...ETC/
    THUNDER OR FOG.

PAZ002>004-007>009-013>016-020>023-029>032-311900-
WESTERN PENNSYLVANIA

CITY           SKY/WX    TMP DP  RH WIND       PRES   REMARKS
ERIE           SUNNY     81  65  58 W17       29.91F
MEADVILLE      MOSUNNY   84  53  34 W12       29.94F
FRANKLIN*      PTSUNNY   81  57  44 W14       29.96F
NEW CASTLE     MOCLDY    84  57  39 W8        29.95F
BEAVER COUNTY  PTSUNNY   81  55  41 W6G16     29.96F
BUTLER*        PTSUNNY   82  55  39 W7        29.97F
PITTSBURGH INT MOSUNNY   86  54  33 W14G23    29.96F
PITTSBURGH     PTSUNNY   81  50  33 W7G20     29.96F
INDIANA*       MOSUNNY   81  59  47 NW10      29.99F
LATROBE        PTSUNNY   82  57  42 SW16      29.99F
WASHINGTON CO* NOT AVBL
$$

PAZ004>006-010>012-017>019-024>028-033>037-041-042-045-046-049>053-311900-
CENTRAL PENNSYLVANIA

CITY           SKY/WX    TMP DP  RH WIND       PRES   REMARKS
BRADFORD       PTSUNNY   79  55  43 VRB7G17   29.95F
DUBOIS         PTSUNNY   81  56  42 W13       29.96F
CLEARFIELD     MOSUNNY   83  58  42 SW12G18   29.95F
JOHNSTOWN      MOSUNNY   79  55  43 W10       30.01F
ALTOONA        SUNNY     82  57  42 W8        29.97F
STATE COLLEGE  MOSUNNY   82  59  44 W10       29.94F
WILLIAMSPORT   MOSUNNY   85  56  37 SW10      29.88F
SELINSGROVE    SUNNY     86  58  38 VRB3      29.90F
FT INDIANTOWN  SUNNY     84  60  42 NW7       29.91F
CAPITAL CITY   MOSUNNY   87  55  33 N9        29.91S
HARRISBURG     MOSUNNY   87  61  41 NW10      29.90S
YORK           MOSUNNY   84  61  45 W5        29.92F
$$

PAZ038>040-043-044-047-048-054-055-060>062-067>071-311900-
EASTERN PENNSYLVANIA

CITY           SKY/WX    TMP DP  RH WIND       PRES   REMARKS
SCRANTON       SUNNY     84  52  33 W6        29.90F
MOUNT POCONO   SUNNY     79  51  37 N10G18    29.94F
ALLENTOWN      MOSUNNY   86  60  41 W8        29.88F
QUAKERTOWN*    PTCLDY    84  61  45 NW7       29.91S
READING        MOSUNNY   86  57  37 W10       29.89S
LANCASTER      MOSUNNY   85  55  35 VRB6      29.91S
COATESVILLE    CLEAR     82  61  47 NW6       29.93S
POTTSTOWN      MOSUNNY   85  59  41 VRB7      29.91S
BLUE BELL      SUNNY     86  61  42 W8        29.88S
DOYLESTOWN     MOSUNNY   84  53  34 VRB6      29.88F
WILLOW GROVE   NOT AVBL
NORTH PHILA    SUNNY     90  53  28 W9        29.89S
PHILADELPHIA   MOSUNNY   88  54  31 NW8G17    29.88F
$$


USA.gov is the U.S. government's official web portal to all federal, state and local government web resources and services.